Date String (YYYY-MM-DD hh:mm:ss) UTC,Instrument flags,absolute air pressure of the measurement (hPa),sample flow rate (lpm),inlet stack bypass flow (lpm),air temperature of the measurement (°C),ambient temperature measured by the external sensor (°C),aerosol sample conditioner tube jacket temperature (°C),OPC LED temperature (°C),internal box temperature (°C),relative humidity of the measurement (%),span deviation,mass concentration of particles derived from Lorenz-Mie calculation of OPC scattering (μg/m³),mass concentration of particles derived from Lorenz-Mie calculation of OPC scattering (μg/m³),mass concentration of particles derived from Lorenz-Mie calculation of OPC scattering (μg/m³)
DateTimeUTC,F1_M11,P_M11,Q1_M11,Q2_M11,T1_M11,T2_M11,T3_M11,T4_M11,T5_M11,U1_M11,ZSPAN_M11,X0_M11,X2_M11,X1_M11
2023-09-03 14:00:00,SystemResetWarning,0833.4,5.00,000.00,028.4,027.4,000.0,036.7,030.1,29.2,0000.0,0003.45,0002.53,0002.06
2023-09-03 14:01:00,SystemResetWarning,0833.4,4.99,000.00,028.4,027.0,000.0,036.7,030.0,28.9,0000.0,0003.47,0002.55,0002.09
2023-09-03 14:02:00,SystemResetWarning,0833.3,4.99,000.00,028.3,025.6,000.0,036.6,029.6,29.5,0000.0,0003.62,0002.62,0002.10
2023-09-03 14:03:00,SystemResetWarning,0833.2,5.00,000.00,028.2,024.7,000.0,036.5,029.4,29.0,0000.0,0003.67,0002.66,0002.11
2023-09-03 14:04:00,SystemResetWarning,0833.2,5.01,000.00,028.2,024.8,000.0,036.5,029.4,28.5,0000.0,0003.67,0002.67,0002.11
2023-09-03 14:05:00,SystemResetWarning,0833.2,5.00,000.00,028.1,025.1,000.0,036.5,029.4,29.1,0000.0,0004.19,0002.66,0002.11
2023-09-03 14:06:00,SystemResetWarning,0833.3,5.00,000.00,028.1,025.5,000.0,036.5,029.5,29.2,0000.0,0004.30,0002.64,0002.11
2023-09-03 14:07:00,SystemResetWarning,0833.3,5.00,000.00,028.1,025.8,000.0,036.5,029.6,29.0,0000.0,0004.34,0002.65,0002.11
2023-09-03 14:08:00,SystemResetWarning,0833.3,5.00,000.00,028.1,026.1,000.0,036.5,029.7,28.8,0000.0,0004.45,0002.66,0002.11
2023-09-03 14:09:00,SystemResetWarning,0833.3,5.00,000.00,028.1,026.4,000.0,036.6,029.7,29.1,0000.0,0004.68,0002.68,0002.10
2023-09-03 14:10:00,SystemResetWarning,0833.2,5.00,000.00,028.2,026.6,000.0,036.6,029.8,29.2,0000.0,0004.71,0002.69,0002.10
2023-09-03 14:11:00,SystemResetWarning,0833.2,5.01,000.00,028.2,026.8,000.0,036.6,029.9,28.9,0000.0,0004.71,0002.69,0002.10
2023-09-03 14:12:00,SystemResetWarning,0833.2,5.00,000.00,028.2,027.0,000.0,036.6,029.9,28.8,0000.0,0004.63,0002.66,0002.08
2023-09-03 14:13:00,SystemResetWarning,0833.2,5.00,000.00,028.3,027.2,000.0,036.6,030.0,29.0,0000.0,0004.60,0002.65,0002.08
2023-09-03 14:14:00,SystemResetWarning,0833.2,5.00,000.00,028.3,027.3,000.0,036.7,030.0,29.5,0000.0,0004.62,0002.64,0002.08
2023-09-03 14:15:00,SystemResetWarning,0833.2,4.99,000.00,028.4,026.9,000.0,036.6,029.9,29.6,0000.0,0005.37,0002.66,0002.08
2023-09-03 14:16:00,SystemResetWarning,0833.2,5.01,000.00,028.3,025.5,000.0,036.6,029.5,30.0,0000.0,0005.43,0002.67,0002.09
2023-09-03 14:17:00,SystemResetWarning,0833.2,5.01,000.00,028.2,024.8,000.0,036.5,029.4,30.1,0000.0,0005.47,0002.73,0002.11
2023-09-03 14:18:00,SystemResetWarning,0833.2,5.01,000.00,028.1,025.0,000.0,036.5,029.4,29.9,0000.0,0005.42,0002.73,0002.12
2023-09-03 14:19:00,SystemResetWarning,0833.2,5.00,000.00,028.1,025.3,000.0,036.5,029.4,29.8,0000.0,0005.31,0002.74,0002.13
2023-09-03 14:20:00,SystemResetWarning,0833.2,5.01,000.00,028.1,025.7,000.0,036.5,029.5,29.3,0000.0,0005.05,0002.70,0002.15
2023-09-03 14:21:00,SystemResetWarning,0833.2,5.00,000.00,028.1,026.0,000.0,036.5,029.6,29.7,0000.0,0005.11,0002.72,0002.17
2023-09-03 14:22:00,SystemResetWarning,0833.2,5.00,000.00,028.1,026.3,000.0,036.5,029.7,29.8,0000.0,0005.18,0002.76,0002.19
2023-09-03 14:23:00,SystemResetWarning,0833.2,5.00,000.00,028.2,026.6,000.0,036.5,029.8,29.8,0000.0,0005.24,0002.80,0002.21
2023-09-03 14:24:00,SystemResetWarning,0833.2,4.99,000.00,028.2,026.8,000.0,036.6,029.8,30.2,0000.0,0005.30,0002.80,0002.22
2023-09-03 14:25:00,SystemResetWarning,0833.2,5.00,000.00,028.2,027.0,000.0,036.6,029.9,32.4,0000.0,0005.49,0002.83,0002.22
2023-09-03 14:26:00,SystemResetWarning,0833.2,5.00,000.00,028.3,027.1,000.0,036.6,030.0,31.0,0000.0,0005.18,0002.83,0002.21
2023-09-03 14:27:00,SystemResetWarning,0833.2,5.00,000.00,028.3,027.0,000.0,036.6,030.0,30.3,0000.0,0004.37,0002.80,0002.18
2023-09-03 14:28:00,SystemResetWarning,0833.2,4.98,000.00,028.3,025.7,000.0,036.5,029.6,30.0,0000.0,0006.46,0002.71,0002.14
2023-09-03 14:29:00,SystemResetWarning,0833.1,5.01,000.00,028.2,024.7,000.0,036.4,029.4,29.4,0000.0,0007.22,0002.67,0002.11
2023-09-03 14:30:00,SystemResetWarning,0833.2,5.01,000.00,028.1,024.9,000.0,036.4,029.4,29.4,0000.0,0007.53,0002.72,0002.09
2023-09-03 14:31:00,SystemResetWarning,0833.1,5.00,000.00,028.0,025.2,000.0,036.4,029.4,29.6,0000.0,0007.52,0002.69,0002.06
2023-09-03 14:32:00,SystemResetWarning,0833.2,5.00,000.00,028.0,025.5,000.0,036.4,029.5,28.9,0000.0,0007.58,0002.72,0002.04
2023-09-03 14:33:00,SystemResetWarning,0833.1,5.01,000.00,028.1,025.9,000.0,036.5,029.6,28.7,0000.0,0007.61,0002.70,0002.01
2023-09-03 14:34:00,SystemResetWarning,0833.1,5.00,000.00,028.1,026.2,000.0,036.5,029.7,28.6,0000.0,0007.71,0002.68,0001.96
2023-09-03 14:35:00,SystemResetWarning,0833.4,4.99,000.00,028.1,026.5,000.0,036.5,029.7,28.6,0000.0,0007.65,0002.63,0001.92
2023-09-03 14:36:00,SystemResetWarning,0833.3,5.01,000.00,028.2,026.7,000.0,036.5,029.8,29.6,0000.0,0008.09,0002.61,0001.90
2023-09-03 14:37:00,SystemResetWarning,0833.5,5.01,000.00,028.2,026.9,000.0,036.5,029.9,29.0,0000.0,0008.68,0002.60,0001.90
2023-09-03 14:38:00,SystemResetWarning,0833.5,5.00,000.00,028.3,027.1,000.0,036.6,030.0,30.1,0000.0,0008.89,0002.57,0001.90
2023-09-03 14:39:00,SystemResetWarning,0833.3,4.98,000.00,028.3,026.7,000.0,036.5,029.9,32.9,0000.0,0008.77,0002.58,0001.90
2023-09-03 14:40:00,SystemResetWarning,0833.0,5.00,000.00,028.2,025.4,000.0,036.5,029.4,34.4,0000.0,0008.09,0002.56,0001.90
2023-09-03 14:41:00,SystemResetWarning,0833.2,5.01,000.00,028.1,024.7,000.0,036.4,029.3,34.5,0000.0,0007.76,0002.49,0001.89
2023-09-03 14:42:00,SystemResetWarning,0833.4,5.01,000.00,028.0,025.0,000.0,036.4,029.3,34.6,0000.0,0007.75,0002.48,0001.89
2023-09-03 14:43:00,SystemResetWarning,0833.2,5.01,000.00,028.0,025.3,000.0,036.4,029.4,33.8,0000.0,0007.66,0002.44,0001.89
2023-09-03 14:44:00,SystemResetWarning,0833.1,5.00,000.00,028.0,025.6,000.0,036.4,029.5,32.9,0000.0,0007.57,0002.40,0001.90
2023-09-03 14:45:00,SystemResetWarning,0833.0,5.00,000.00,028.0,026.0,000.0,036.4,029.6,31.9,0000.0,0007.47,0002.37,0001.91
2023-09-03 14:46:00,SystemResetWarning,0833.0,5.00,000.00,028.1,026.3,000.0,036.5,029.7,32.0,0000.0,0007.91,0002.37,0001.90
2023-09-03 14:47:00,SystemResetWarning,0833.0,4.99,000.00,028.1,026.6,000.0,036.5,029.7,32.3,0000.0,0007.70,0002.34,0001.90
2023-09-03 14:48:00,SystemResetWarning,0833.1,5.00,000.00,028.2,026.8,000.0,036.5,029.8,31.7,0000.0,0006.75,0002.34,0001.90
2023-09-03 14:49:00,SystemResetWarning,0833.5,5.00,000.00,028.2,026.9,000.0,036.5,029.9,32.0,0000.0,0006.53,0002.35,0001.90
2023-09-03 14:50:00,SystemResetWarning,0833.3,4.98,000.00,028.2,026.2,000.0,036.5,029.7,32.6,0000.0,0005.02,0002.40,0001.90
2023-09-03 14:51:00,SystemResetWarning,0833.0,5.00,000.00,028.1,024.9,000.0,036.4,029.3,32.4,0000.0,0006.22,0002.47,0001.90
2023-09-03 14:52:00,SystemResetWarning,0833.0,5.01,000.00,028.0,024.6,000.0,036.3,029.2,32.7,0000.0,0006.62,0002.48,0001.90
2023-09-03 14:53:00,SystemResetWarning,0833.0,5.00,000.00,027.9,024.9,000.0,036.3,029.2,32.8,0000.0,0007.18,0002.45,0001.91
2023-09-03 14:54:00,SystemResetWarning,0833.1,5.00,000.00,027.9,025.3,000.0,036.3,029.3,32.7,0000.0,0007.12,0002.44,0001.91
2023-09-03 14:55:00,SystemResetWarning,0833.0,5.00,000.00,027.9,025.6,000.0,036.4,029.4,32.5,0000.0,0007.21,0002.48,0001.92
2023-09-03 14:56:00,SystemResetWarning,0833.0,5.00,000.00,028.0,026.0,000.0,036.4,029.5,32.7,0000.0,0007.22,0002.50,0001.93
2023-09-03 14:57:00,SystemResetWarning,0833.3,5.00,000.00,028.0,026.3,000.0,036.4,029.6,33.1,0000.0,0006.55,0002.54,0001.94
2023-09-03 14:58:00,SystemResetWarning,0833.2,5.00,000.00,028.0,026.6,000.0,036.4,029.7,31.6,0000.0,0006.17,0002.54,0001.94
2023-09-03 14:59:00,SystemResetWarning,0833.3,5.00,000.00,028.1,026.8,000.0,036.4,029.8,31.1,0000.0,0006.09,0002.54,0001.94
